Total_Precipitation_Accumulation
0.00 0.00 0.00 0.00 0.00 0.00 0.00 0.00 0.00 0.00 0.00 0.00 0.00 0.00 0.00 0.00 0.01 0.09 0.01 0.00 0.00 0.00 0.01 0.00 0.00 0.00 0.00 0.00 0.00 0.00 0.00 0.01 0.01 0.01 0.00 0.01 0.06 0.01 0.00 0.02 0.01 0.00 0.02 0.01 0.01 0.00 0.00 0.00 0.00
0.00 0.00 0.00 0.00 0.00 0.00 0.00 0.00 0.00 0.00 0.00 0.00 0.00 0.00 0.00 0.00 0.00 0.01 0.01 0.00 0.00 0.00 0.01 0.01 0.00 0.00 0.00 0.00 0.00 0.00 0.00 0.01 0.01 0.02 0.02 0.04 0.07 0.00 0.00 0.01 0.00 0.00 0.02 0.01 0.00 0.00 0.00 0.00 0.00
0.00 0.00 0.00 0.00 0.00 0.00 0.00 0.00 0.00 0.00 0.00 0.00 0.00 0.00 0.00 0.00 0.00 0.01 0.01 0.00 0.00 0.02 0.01 0.01 0.01 0.00 0.00 0.00 0.00 0.00 0.01 0.02 0.02 0.03 0.05 0.09 0.09 0.00 0.00 0.00 0.00 0.01 0.01 0.00 0.00 0.00 0.00 0.00 0.00
0.00 0.00 0.00 0.00 0.00 0.00 0.00 0.00 0.00 0.00 0.00 0.00 0.00 0.00 0.00 0.00 0.00 0.02 0.01 0.00 0.00 0.03 0.04 0.01 0.01 0.00 0.00 0.00 0.00 0.01 0.01 0.02 0.05 0.07 0.10 0.12 0.05 0.00 0.00 0.00 0.00 0.00 0.01 0.01 0.00 0.00 0.00 0.00 0.00
0.00 0.00 0.00 0.00 0.00 0.00 0.00 0.00 0.00 0.00 0.00 0.00 0.00 0.00 0.00 0.00 0.00 0.00 0.03 0.02 0.00 0.02 0.06 0.01 0.03 0.01 0.01 0.01 0.00 0.02 0.02 0.03 0.08 0.09 0.11 0.07 0.02 0.00 0.00 0.00 0.00 0.01 0.01 0.00 0.00 0.00 0.00 0.00 0.00
0.00 0.00 0.00 0.00 0.00 0.00 0.00 0.00 0.00 0.00 0.00 0.00 0.00 0.00 0.00 0.00 0.00 0.00 0.08 0.15 0.05 0.06 0.11 0.06 0.04 0.02 0.00 0.01 0.00 0.03 0.02 0.03 0.08 0.11 0.14 0.06 0.01 0.00 0.00 0.00 0.01 0.02 0.01 0.00 0.00 0.00 0.00 0.00 0.00
0.00 0.00 0.00 0.00 0.00 0.00 0.00 0.00 0.00 0.00 0.00 0.00 0.00 0.00 0.00 0.00 0.00 0.01 0.10 0.30 0.26 0.25 0.22 0.20 0.06 0.02 0.00 0.00 0.01 0.05 0.03 0.04 0.07 0.13 0.11 0.02 0.00 0.00 0.01 0.01 0.01 0.02 0.01 0.00 0.00 0.00 0.00 0.00 0.00
0.00 0.00 0.00 0.00 0.00 0.00 0.00 0.00 0.00 0.00 0.00 0.00 0.00 0.00 0.00 0.00 0.00 0.02 0.04 0.44 0.63 0.77 0.54 0.40 0.17 0.02 0.00 0.00 0.01 0.06 0.04 0.02 0.04 0.07 0.02 0.01 0.00 0.01 0.01 0.01 0.02 0.02 0.02 0.00 0.00 0.00 0.00 0.00 0.00
0.00 0.00 0.00 0.00 0.00 0.00 0.00 0.00 0.00 0.00 0.00 0.00 0.00 0.00 0.00 0.00 0.01 0.05 0.04 0.46 1.35 1.19 1.00 0.71 0.52 0.16 0.03 0.00 0.00 0.03 0.04 0.03 0.03 0.04 0.01 0.00 0.00 0.00 0.00 0.00 0.01 0.01 0.02 0.00 0.00 0.00 0.00 0.00 0.00
0.00 0.00 0.00 0.00 0.00 0.00 0.00 0.00 0.00 0.00 0.00 0.00 0.00 0.00 0.00 0.01 0.02 0.03 0.03 0.15 1.09 1.45 1.22 1.11 0.74 0.33 0.11 0.01 0.00 0.02 0.04 0.03 0.02 0.02 0.00 0.00 0.00 0.00 0.00 0.00 0.01 0.01 0.01 0.00 0.00 0.00 0.00 0.00 0.00
0.00 0.00 0.00 0.00 0.00 0.00 0.00 0.00 0.00 0.00 0.00 0.00 0.00 0.01 0.10 0.14 0.10 0.04 0.03 0.13 0.53 1.05 0.88 0.92 0.67 0.40 0.18 0.05 0.01 0.00 0.05 0.05 0.05 0.01 0.00 0.00 0.00 0.00 0.00 0.00 0.00 0.00 0.00 0.00 0.00 0.00 0.00 0.00 0.00
0.00 0.00 0.00 0.00 0.00 0.00 0.00 0.00 0.00 0.00 0.00 0.00 0.00 0.01 0.10 0.22 0.15 0.11 0.05 0.06 0.29 0.90 0.61 0.60 0.73 0.36 0.14 0.08 0.02 0.01 0.01 0.02 0.02 0.01 0.00 0.00 0.00 0.00 0.00 0.00 0.00 0.00 0.00 0.00 0.00 0.00 0.00 0.00 0.00
0.00 0.00 0.00 0.00 0.00 0.00 0.00 0.00 0.00 0.00 0.00 0.00 0.01 0.01 0.06 0.28 0.29 0.11 0.02 0.02 0.08 0.36 0.83 0.91 0.86 1.09 0.32 0.21 0.06 0.03 0.01 0.00 0.00 0.00 0.00 0.00 0.00 0.00 0.00 0.00 0.00 0.00 0.00 0.00 0.00 0.00 0.00 0.00 0.00
0.01 0.00 0.00 0.00 0.00 0.00 0.00 0.00 0.02 0.00 0.00 0.00 0.00 0.01 0.02 0.11 0.18 0.28 0.10 0.03 0.04 0.17 0.81 1.76 1.13 0.93 0.97 0.39 0.09 0.06 0.02 0.00 0.00 0.00 0.00 0.00 0.00 0.00 0.00 0.00 0.00 0.00 0.00 0.00 0.00 0.00 0.00 0.00 0.00
0.01 0.01 0.00 0.00 0.00 0.00 0.02 0.02 0.01 0.00 0.00 0.01 0.01 0.01 0.01 0.07 0.18 0.25 0.43 0.18 0.10 0.09 0.35 1.32 1.43 0.75 0.75 0.50 0.23 0.11 0.04 0.01 0.00 0.00 0.00 0.00 0.00 0.00 0.00 0.00 0.00 0.00 0.00 0.00 0.00 0.00 0.00 0.00 0.00
0.01 0.02 0.01 0.00 0.00 0.00 0.07 0.02 0.00 0.02 0.03 0.01 0.01 0.02 0.02 0.06 0.13 0.18 0.13 0.19 0.14 0.07 0.18 0.57 0.49 0.64 0.29 0.24 0.24 0.20 0.10 0.02 0.00 0.00 0.00 0.00 0.00 0.00 0.00 0.00 0.00 0.00 0.00 0.00 0.00 0.00 0.00 0.00 0.00
0.00 0.02 0.06 0.09 0.00 0.03 0.06 0.04 0.02 0.01 0.02 0.02 0.01 0.05 0.01 0.05 0.16 0.23 0.13 0.08 0.03 0.01 0.03 0.12 0.16 0.17 0.30 0.15 0.16 0.13 0.15 0.11 0.02 0.00 0.00 0.00 0.00 0.00 0.00 0.00 0.00 0.00 0.00 0.00 0.00 0.00 0.00 0.00 0.00
0.03 0.04 0.06 0.12 0.08 0.05 0.06 0.02 0.09 0.07 0.02 0.00 0.03 0.02 0.02 0.04 0.19 0.32 0.17 0.21 0.09 0.06 0.03 0.04 0.08 0.11 0.14 0.21 0.10 0.04 0.05 0.08 0.05 0.01 0.00 0.00 0.00 0.00 0.00 0.00 0.00 0.00 0.00 0.00 0.00 0.00 0.00 0.00 0.00
0.00 0.02 0.06 0.13 0.21 0.03 0.02 0.00 0.02 0.15 0.16 0.02 0.04 0.03 0.03 0.08 0.24 0.43 0.31 0.19 0.23 0.16 0.11 0.03 0.04 0.05 0.06 0.16 0.21 0.01 0.01 0.01 0.02 0.01 0.02 0.02 0.00 0.01 0.00 0.00 0.00 0.00 0.00 0.00 0.00 0.00 0.00 0.00 0.00
0.01 0.01 0.05 0.08 0.12 0.04 0.02 0.01 0.00 0.01 0.04 0.02 0.02 0.01 0.09 0.16 0.32 0.73 0.46 0.33 0.32 0.32 0.11 0.04 0.08 0.06 0.09 0.18 0.47 0.42 0.14 0.03 0.05 0.01 0.00 0.01 0.01 0.01 0.01 0.01 0.01 0.01 0.00 0.00 0.00 0.01 0.03 0.05 0.05
0.01 0.01 0.06 0.15 0.10 0.06 0.05 0.04 0.02 0.01 0.00 0.01 0.02 0.01 0.05 0.13 0.17 0.83 1.05 0.57 0.36 0.50 0.17 0.07 0.07 0.10 0.12 0.16 0.20 0.28 0.35 0.35 0.11 0.06 0.04 0.01 0.02 0.01 0.00 0.00 0.02 0.03 0.03 0.06 0.08 0.06 0.12 0.19 0.17
0.03 0.01 0.06 0.17 0.23 0.28 0.03 0.13 0.13 0.03 0.04 0.05 0.02 0.01 0.10 0.13 0.16 0.50 1.40 1.04 0.89 0.75 0.40 0.20 0.16 0.12 0.08 0.16 0.16 0.15 0.21 0.29 0.37 0.26 0.11 0.09 0.10 0.08 0.05 0.04 0.02 0.07 0.31 0.36 0.26 0.20 0.17 0.14 0.17
0.07 0.04 0.04 0.02 0.05 0.42 0.09 0.12 0.29 0.25 0.22 0.09 0.02 0.03 0.12 0.15 0.21 0.30 0.77 1.06 1.19 0.95 0.62 0.31 0.22 0.14 0.13 0.11 0.25 0.18 0.12 0.13 0.23 0.27 0.22 0.10 0.07 0.07 0.06 0.03 0.04 0.07 0.19 0.49 0.61 0.55 0.47 0.40 0.29
0.06 0.03 0.01 0.03 0.08 0.30 0.09 0.25 0.41 0.41 0.37 0.23 0.02 0.07 0.13 0.16 0.21 0.18 0.20 0.66 0.79 0.84 0.83 0.51 0.23 0.08 0.12 0.08 0.21 0.22 0.31 0.19 0.14 0.16 0.18 0.12 0.08 0.11 0.13 0.12 0.13 0.17 0.32 0.39 0.41 0.31 0.27 0.21 0.14
0.05 0.07 0.12 0.09 0.13 0.20 0.22 0.19 0.38 0.33 0.23 0.21 0.04 0.10 0.22 0.21 0.22 0.08 0.07 0.27 0.34 0.42 0.46 0.36 0.36 0.24 0.28 0.15 0.17 0.11 0.22 0.27 0.39 0.40 0.30 0.24 0.21 0.16 0.12 0.10 0.13 0.18 0.27 0.34 0.32 0.19 0.12 0.06 0.02
0.11 0.18 0.17 0.10 0.14 0.20 0.14 0.23 0.42 0.26 0.29 0.15 0.04 0.12 0.13 0.13 0.11 0.02 0.01 0.06 0.05 0.12 0.14 0.08 0.08 0.11 0.19 0.32 0.28 0.15 0.25 0.33 0.36 0.28 0.21 0.20 0.26 0.34 0.28 0.19 0.16 0.14 0.09 0.07 0.05 0.01 0.01 0.00 0.00
0.03 0.02 0.00 0.06 0.03 0.07 0.18 0.35 0.38 0.38 0.34 0.06 0.05 0.07 0.10 0.15 0.04 0.01 0.01 0.00 0.00 0.00 0.00 0.00 0.00 0.00 0.00 0.00 0.02 0.06 0.02 0.03 0.12 0.13 0.09 0.11 0.19 0.20 0.23 0.27 0.24 0.16 0.10 0.05 0.03 0.01 0.00 0.00 0.00
0.01 0.00 0.00 0.01 0.03 0.05 0.06 0.05 0.22 0.29 0.18 0.08 0.10 0.09 0.03 0.02 0.00 0.01 0.01 0.01 0.00 0.00 0.00 0.00 0.00 0.00 0.00 0.00 0.00 0.00 0.00 0.02 0.03 0.02 0.06 0.17 0.13 0.09 0.06 0.09 0.11 0.07 0.07 0.07 0.03 0.03 0.05 0.02 0.01
0.00 0.00 0.00 0.00 0.00 0.00 0.01 0.06 0.03 0.05 0.04 0.02 0.04 0.03 0.01 0.00 0.00 0.00 0.00 0.00 0.00 0.00 0.00 0.00 0.00 0.00 0.00 0.00 0.00 0.00 0.00 0.00 0.00 0.00 0.01 0.03 0.01 0.00 0.01 0.01 0.02 0.03 0.01 0.01 0.01 0.01 0.01 0.01 0.00
0.00 0.00 0.00 0.00 0.00 0.00 0.00 0.04 0.00 0.00 0.00 0.00 0.01 0.00 0.00 0.00 0.00 0.00 0.00 0.00 0.00 0.00 0.00 0.00 0.00 0.00 0.00 0.00 0.00 0.00 0.00 0.00 0.00 0.00 0.00 0.00 0.00 0.00 0.00 0.01 0.02 0.03 0.03 0.02 0.02 0.02 0.02 0.00 0.00